TimeEDT,TemperatureF,Dew PointF,Humidity,Sea Level PressureIn,VisibilityMPH,Wind Direction,Wind SpeedMPH,Gust SpeedMPH,PrecipitationIn,Events,Conditions,WindDirDegrees,DateUTC
12:53 AM,77.0,66.0,69,29.78,10.0,NW,15.0,21.9,N/A,,Partly Cloudy,320,2012-10-28 04:53:00
1:53 AM,77.0,66.0,69,29.78,10.0,NW,13.8,-,N/A,,Partly Cloudy,320,2012-10-28 05:53:00
2:53 AM,77.0,66.0,69,29.77,10.0,NW,11.5,-,N/A,,Partly Cloudy,320,2012-10-28 06:53:00
3:53 AM,77.0,66.0,69,29.77,10.0,NW,13.8,-,N/A,,Partly Cloudy,320,2012-10-28 07:53:00
4:53 AM,77.0,68.0,74,29.76,10.0,NW,12.7,-,N/A,,Scattered Clouds,310,2012-10-28 08:53:00
5:53 AM,77.0,68.0,74,29.77,10.0,NW,11.5,-,N/A,,Partly Cloudy,310,2012-10-28 09:53:00
6:53 AM,77.0,66.9,71,29.79,10.0,NW,15.0,-,N/A,,Clear,310,2012-10-28 10:53:00
7:53 AM,75.9,66.9,74,29.80,10.0,NW,16.1,-,0.00,,Scattered Clouds,310,2012-10-28 11:53:00
8:53 AM,78.1,66.9,68,29.81,10.0,NW,18.4,-,N/A,,Clear,310,2012-10-28 12:53:00
9:53 AM,79.0,66.0,64,29.83,10.0,NW,15.0,24.2,N/A,,Clear,310,2012-10-28 13:53:00
10:53 AM,80.6,68.0,65,29.83,10.0,NW,15.0,23.0,N/A,,Partly Cloudy,320,2012-10-28 14:53:00
11:53 AM,80.1,66.9,64,29.83,10.0,NW,19.6,24.2,N/A,,Clear,310,2012-10-28 15:53:00
12:53 PM,80.1,66.9,64,29.82,10.0,NW,16.1,27.6,N/A,,Partly Cloudy,310,2012-10-28 16:53:00
1:53 PM,80.1,66.9,64,29.80,10.0,WNW,19.6,29.9,N/A,,Partly Cloudy,300,2012-10-28 17:53:00
2:53 PM,80.1,66.0,62,29.78,10.0,WNW,23.0,31.1,N/A,,Partly Cloudy,300,2012-10-28 18:53:00
3:53 PM,79.0,66.0,64,29.78,10.0,WNW,18.4,26.5,N/A,,Partly Cloudy,300,2012-10-28 19:53:00
4:53 PM,78.1,64.9,64,29.77,10.0,NW,17.3,26.5,N/A,,Mostly Cloudy,310,2012-10-28 20:53:00
5:53 PM,77.0,66.0,69,29.78,10.0,NW,16.1,26.5,N/A,,Scattered Clouds,310,2012-10-28 21:53:00
6:53 PM,75.9,64.0,67,29.80,10.0,NW,18.4,28.8,N/A,,Mostly Cloudy,310,2012-10-28 22:53:00
7:53 PM,75.9,61.0,60,29.81,10.0,WNW,15.0,25.3,N/A,,Mostly Cloudy,290,2012-10-28 23:53:00
8:53 PM,75.9,61.0,60,29.83,10.0,WNW,17.3,24.2,N/A,,Mostly Cloudy,300,2012-10-29 00:53:00
9:53 PM,75.0,63.0,66,29.83,10.0,NW,15.0,25.3,N/A,,Scattered Clouds,310,2012-10-29 01:53:00
10:53 PM,75.0,60.1,60,29.85,10.0,NW,19.6,28.8,N/A,,Scattered Clouds,310,2012-10-29 02:53:00
11:53 PM,73.9,60.1,62,29.84,10.0,NW,19.6,25.3,N/A,,Partly Cloudy,310,2012-10-29 03:53:00